RYR23B EGPH-EIDW

Flight info

Callsign RYR23B
Flight time 0h 51m
Altitude 24000
Route GOSAM P600 BLACA P620 NIMAT NIMAT3R
Aircraft B738/M-SDE3FGILRWY/SB1

Departure

Time 2026-04-24 13:40
Airport Edinburgh Airport (EGPH)

Arrival

Time 2026-04-24 14:32
Airport Dublin Airport (EIDW)
Time Latitude Longitude Altitude Speed Heading
2026-04-24 13:14 55.94884 -3.36551 112 ft 0 kts 148°
2026-04-24 13:31 55.94897 -3.36565 115 ft 4 kts 148°
2026-04-24 13:31 55.94915 -3.36585 113 ft 4 kts 159°
2026-04-24 13:31 55.94931 -3.36592 115 ft 4 kts 189°
2026-04-24 13:31 55.94953 -3.36573 115 ft 4 kts 232°
2026-04-24 13:32 55.94958 -3.36561 115 ft 0 kts 238°
2026-04-24 13:35 55.94958 -3.36563 111 ft 1 kts 238°
2026-04-24 13:35 55.94941 -3.36611 115 ft 6 kts 237°
2026-04-24 13:35 55.94914 -3.36689 114 ft 10 kts 239°
2026-04-24 13:35 55.94908 -3.36816 113 ft 12 kts 302°
2026-04-24 13:36 55.94906 -3.36956 113 ft 12 kts 238°
2026-04-24 13:36 55.94861 -3.37082 114 ft 12 kts 238°
2026-04-24 13:36 55.94817 -3.37210 113 ft 13 kts 239°
2026-04-24 13:36 55.94761 -3.37374 112 ft 17 kts 239°
2026-04-24 13:37 55.94700 -3.37555 114 ft 17 kts 238°
2026-04-24 13:37 55.94640 -3.37730 113 ft 16 kts 239°
2026-04-24 13:37 55.94582 -3.37900 112 ft 16 kts 239°
2026-04-24 13:37 55.94528 -3.38063 113 ft 15 kts 239°
2026-04-24 13:38 55.94476 -3.38219 113 ft 14 kts 238°
2026-04-24 13:38 55.94425 -3.38369 115 ft 15 kts 239°
2026-04-24 13:38 55.94370 -3.38529 115 ft 15 kts 239°
2026-04-24 13:38 55.94319 -3.38683 115 ft 14 kts 239°
2026-04-24 13:39 55.94285 -3.38839 115 ft 14 kts 286°
2026-04-24 13:39 55.94359 -3.38952 112 ft 15 kts 332°
2026-04-24 13:39 55.94449 -3.38877 112 ft 18 kts 57°
2026-04-24 13:39 55.94658 -3.38262 113 ft 99 kts 58°
2026-04-24 13:40 55.95146 -3.36838 213 ft 157 kts 60°
2026-04-24 13:40 55.95718 -3.35200 1105 ft 159 kts 57°
2026-04-24 13:40 55.96461 -3.33468 1597 ft 195 kts 39°
2026-04-24 13:40 55.97545 -3.31870 2093 ft 216 kts 41°
2026-04-24 13:41 55.98719 -3.29991 2610 ft 233 kts 41°
2026-04-24 13:41 56.00017 -3.28216 3323 ft 237 kts 22°
2026-04-24 13:41 56.01630 -3.28013 4075 ft 237 kts 341°
2026-04-24 13:41 56.02942 -3.29724 4838 ft 238 kts 302°
2026-04-24 13:42 56.03360 -3.32551 5540 ft 241 kts 266°
2026-04-24 13:42 56.03059 -3.35523 5943 ft 244 kts 256°
2026-04-24 13:42 56.02610 -3.38455 5979 ft 246 kts 255°
2026-04-24 13:42 56.02136 -3.41522 5996 ft 263 kts 255°
2026-04-24 13:43 56.01655 -3.44703 5994 ft 266 kts 255°
2026-04-24 13:43 56.01185 -3.47901 6001 ft 266 kts 256°
2026-04-24 13:43 56.00726 -3.51094 6008 ft 266 kts 256°
2026-04-24 13:43 56.00268 -3.54296 6010 ft 266 kts 256°
2026-04-24 13:44 55.99809 -3.57514 6012 ft 268 kts 256°
2026-04-24 13:44 55.99346 -3.60746 6006 ft 269 kts 256°
2026-04-24 13:44 55.98881 -3.63991 6007 ft 270 kts 256°
2026-04-24 13:44 55.98415 -3.67241 5995 ft 270 kts 256°
2026-04-24 13:45 55.97950 -3.70482 5993 ft 269 kts 256°
2026-04-24 13:45 55.97485 -3.73698 5996 ft 267 kts 256°
2026-04-24 13:45 55.97023 -3.76904 5997 ft 266 kts 256°
2026-04-24 13:45 55.96563 -3.80094 6000 ft 265 kts 256°
2026-04-24 13:46 55.96102 -3.83285 5989 ft 266 kts 256°
2026-04-24 13:46 55.95409 -3.86334 6068 ft 270 kts 232°
2026-04-24 13:46 55.94081 -3.88747 6870 ft 274 kts 224°
2026-04-24 13:46 55.92711 -3.91099 7865 ft 274 kts 225°
2026-04-24 13:47 55.91336 -3.93496 8721 ft 279 kts 225°
2026-04-24 13:47 55.89948 -3.95953 9566 ft 283 kts 226°
2026-04-24 13:47 55.88548 -3.98456 10412 ft 287 kts 226°
2026-04-24 13:47 55.87113 -4.01039 10907 ft 305 kts 226°
2026-04-24 13:48 55.85556 -4.03848 11160 ft 329 kts 226°
2026-04-24 13:48 55.83923 -4.06801 11793 ft 338 kts 226°
2026-04-24 13:48 55.82263 -4.09802 12605 ft 342 kts 226°
2026-04-24 13:48 55.80587 -4.12829 13406 ft 345 kts 226°
2026-04-24 13:49 55.78895 -4.15883 14158 ft 349 kts 226°
2026-04-24 13:49 55.77181 -4.18976 14897 ft 353 kts 226°
2026-04-24 13:49 55.75446 -4.22103 15628 ft 357 kts 226°
2026-04-24 13:49 55.73691 -4.25257 16327 ft 361 kts 225°
2026-04-24 13:50 55.71934 -4.28395 17007 ft 365 kts 224°
2026-04-24 13:50 55.69954 -4.31334 17686 ft 369 kts 216°
2026-04-24 13:50 55.67842 -4.33958 18351 ft 372 kts 214°
2026-04-24 13:50 55.65717 -4.36514 18982 ft 376 kts 214°
2026-04-24 13:51 55.63520 -4.39150 19709 ft 376 kts 214°
2026-04-24 13:51 55.61395 -4.41716 20529 ft 373 kts 214°
2026-04-24 13:51 55.59266 -4.44304 21353 ft 370 kts 214°
2026-04-24 13:51 55.57149 -4.46887 22059 ft 370 kts 214°
2026-04-24 13:52 55.55040 -4.49467 22733 ft 369 kts 214°
2026-04-24 13:52 55.52927 -4.52056 23430 ft 368 kts 215°
2026-04-24 13:52 55.50827 -4.54625 24082 ft 368 kts 214°
2026-04-24 13:52 55.48706 -4.57212 24301 ft 370 kts 214°
2026-04-24 13:53 55.46597 -4.59787 24312 ft 368 kts 214°
2026-04-24 13:53 55.44496 -4.62359 24320 ft 368 kts 214°
2026-04-24 13:53 55.42390 -4.64930 24334 ft 369 kts 214°
2026-04-24 13:53 55.40277 -4.67497 24324 ft 369 kts 214°
2026-04-24 13:54 55.38164 -4.70065 24334 ft 370 kts 214°
2026-04-24 13:54 55.36045 -4.72637 24323 ft 370 kts 214°
2026-04-24 13:54 55.33923 -4.75208 24330 ft 371 kts 214°
2026-04-24 13:54 55.31798 -4.77773 24331 ft 371 kts 213°
2026-04-24 13:55 55.29586 -4.80104 24326 ft 370 kts 207°
2026-04-24 13:55 55.27279 -4.82118 24332 ft 370 kts 205°
2026-04-24 13:55 55.24955 -4.84065 24323 ft 370 kts 205°
2026-04-24 13:55 55.22642 -4.86042 24329 ft 370 kts 206°
2026-04-24 13:56 55.20343 -4.88045 24314 ft 370 kts 206°
2026-04-24 13:56 55.18043 -4.90065 24329 ft 369 kts 206°
2026-04-24 13:56 55.15746 -4.92069 24323 ft 368 kts 206°
2026-04-24 13:56 55.13456 -4.94054 24329 ft 368 kts 206°
2026-04-24 13:57 55.11162 -4.96040 24326 ft 368 kts 206°
2026-04-24 13:57 55.08870 -4.98027 24316 ft 368 kts 206°
2026-04-24 13:57 55.06582 -5.00017 24330 ft 367 kts 206°
2026-04-24 13:57 55.04294 -5.02006 24329 ft 367 kts 206°
2026-04-24 13:58 55.02008 -5.04001 24326 ft 367 kts 206°
2026-04-24 13:58 54.99721 -5.05989 24324 ft 367 kts 206°
2026-04-24 13:58 54.97435 -5.07980 24330 ft 367 kts 206°
2026-04-24 13:58 54.95150 -5.09968 24313 ft 367 kts 206°
2026-04-24 13:59 54.92859 -5.11947 24329 ft 368 kts 205°
2026-04-24 13:59 54.90569 -5.13922 24317 ft 368 kts 205°
2026-04-24 13:59 54.88248 -5.15801 24320 ft 368 kts 200°
2026-04-24 13:59 54.85787 -5.17005 24333 ft 367 kts 191°
2026-04-24 14:00 54.83284 -5.17914 24321 ft 368 kts 190°
2026-04-24 14:00 54.80774 -5.18783 24312 ft 368 kts 190°
2026-04-24 14:00 54.78263 -5.19656 24324 ft 368 kts 191°
2026-04-24 14:00 54.75754 -5.20544 24325 ft 368 kts 191°
2026-04-24 14:01 54.73246 -5.21446 24313 ft 368 kts 191°
2026-04-24 14:01 54.70737 -5.22359 24323 ft 369 kts 191°
2026-04-24 14:01 54.68228 -5.23275 24329 ft 369 kts 191°
2026-04-24 14:01 54.65718 -5.24194 24324 ft 369 kts 191°
2026-04-24 14:02 54.63208 -5.25113 24326 ft 369 kts 191°
2026-04-24 14:02 54.60729 -5.26020 24314 ft 369 kts 191°
2026-04-24 14:02 54.58219 -5.26938 24313 ft 369 kts 191°
2026-04-24 14:02 54.55678 -5.27866 24330 ft 369 kts 191°
2026-04-24 14:03 54.53185 -5.28773 24310 ft 361 kts 191°
2026-04-24 14:03 54.50777 -5.29648 24097 ft 356 kts 191°
2026-04-24 14:03 54.48397 -5.30759 23811 ft 354 kts 200°
2026-04-24 14:03 54.46162 -5.32515 23489 ft 352 kts 205°
2026-04-24 14:04 54.43980 -5.34383 23140 ft 349 kts 205°
2026-04-24 14:04 54.41817 -5.36254 22799 ft 347 kts 205°
2026-04-24 14:04 54.39671 -5.38101 22455 ft 345 kts 205°
2026-04-24 14:04 54.37526 -5.39930 22111 ft 342 kts 205°
2026-04-24 14:05 54.35402 -5.41730 21777 ft 340 kts 205°
2026-04-24 14:05 54.33285 -5.43515 21427 ft 338 kts 205°
2026-04-24 14:05 54.31181 -5.45282 21102 ft 335 kts 205°
2026-04-24 14:05 54.29090 -5.47034 20768 ft 334 kts 205°
2026-04-24 14:06 54.27011 -5.48772 20434 ft 332 kts 205°
2026-04-24 14:06 54.24944 -5.50501 20104 ft 330 kts 205°
2026-04-24 14:06 54.22889 -5.52220 19777 ft 328 kts 204°
2026-04-24 14:06 54.20848 -5.53924 19451 ft 326 kts 204°
2026-04-24 14:07 54.18811 -5.55620 19123 ft 324 kts 204°
2026-04-24 14:07 54.16796 -5.57295 18797 ft 322 kts 204°
2026-04-24 14:07 54.14845 -5.59153 18466 ft 322 kts 216°
2026-04-24 14:07 54.13241 -5.61773 18211 ft 318 kts 230°
2026-04-24 14:08 54.11897 -5.64756 17898 ft 316 kts 232°
2026-04-24 14:08 54.10594 -5.67764 17587 ft 315 kts 232°
2026-04-24 14:08 54.09302 -5.70765 17269 ft 313 kts 232°
2026-04-24 14:08 54.08015 -5.73748 16941 ft 312 kts 232°
2026-04-24 14:09 54.06730 -5.76711 16635 ft 310 kts 232°
2026-04-24 14:09 54.05449 -5.79649 16318 ft 308 kts 232°
2026-04-24 14:09 54.04173 -5.82563 16004 ft 307 kts 232°
2026-04-24 14:09 54.02899 -5.85466 15691 ft 305 kts 231°
2026-04-24 14:10 54.02056 -5.87382 15477 ft 304 kts 231°
2026-04-24 14:10 54.00363 -5.91223 15064 ft 303 kts 231°
2026-04-24 14:10 53.99102 -5.94078 14748 ft 301 kts 232°
2026-04-24 14:10 53.97847 -5.96918 14437 ft 300 kts 231°
2026-04-24 14:11 53.96596 -5.99742 14119 ft 298 kts 231°
2026-04-24 14:11 53.95352 -6.02551 13809 ft 297 kts 232°
2026-04-24 14:11 53.92882 -6.08115 13202 ft 294 kts 231°
2026-04-24 14:12 53.91653 -6.10879 12896 ft 293 kts 231°
2026-04-24 14:12 53.90427 -6.13631 12592 ft 292 kts 231°
2026-04-24 14:12 53.89207 -6.16372 12288 ft 290 kts 231°
2026-04-24 14:12 53.88007 -6.19061 11988 ft 289 kts 231°
2026-04-24 14:13 53.86780 -6.21809 11684 ft 288 kts 231°
2026-04-24 14:13 53.85593 -6.24464 11387 ft 286 kts 231°
2026-04-24 14:13 53.84391 -6.27150 11085 ft 286 kts 231°
2026-04-24 14:13 53.83192 -6.29825 10788 ft 285 kts 231°
2026-04-24 14:14 53.81995 -6.32494 10487 ft 284 kts 231°
2026-04-24 14:14 53.80813 -6.35127 10339 ft 277 kts 231°
2026-04-24 14:14 53.78495 -6.40287 9802 ft 274 kts 231°
2026-04-24 14:15 53.77342 -6.42849 9514 ft 273 kts 230°
2026-04-24 14:15 53.76192 -6.45402 9229 ft 272 kts 230°
2026-04-24 14:15 53.75046 -6.47942 8967 ft 272 kts 230°
2026-04-24 14:15 53.73903 -6.50475 8695 ft 270 kts 230°
2026-04-24 14:16 53.72779 -6.52961 8572 ft 263 kts 230°
2026-04-24 14:16 53.71684 -6.55376 8449 ft 256 kts 230°
2026-04-24 14:16 53.70603 -6.57759 8351 ft 255 kts 231°
2026-04-24 14:17 53.69773 -6.62437 8312 ft 256 kts 267°
2026-04-24 14:17 53.69759 -6.65434 8284 ft 254 kts 268°
2026-04-24 14:17 53.69721 -6.71392 8280 ft 254 kts 267°
2026-04-24 14:18 53.69699 -6.74311 8278 ft 241 kts 266°
2026-04-24 14:18 53.69353 -6.76917 8252 ft 218 kts 236°
2026-04-24 14:18 53.68574 -6.78965 8259 ft 200 kts 234°
2026-04-24 14:18 53.67853 -6.80922 8255 ft 195 kts 234°
2026-04-24 14:19 53.67135 -6.82868 8265 ft 196 kts 234°
2026-04-24 14:19 53.66411 -6.84824 8261 ft 198 kts 234°
2026-04-24 14:19 53.65680 -6.86797 8271 ft 198 kts 234°
2026-04-24 14:19 53.64952 -6.88760 8277 ft 198 kts 234°
2026-04-24 14:20 53.64055 -6.90457 8252 ft 192 kts 204°
2026-04-24 14:20 53.62867 -6.91437 8269 ft 191 kts 202°
2026-04-24 14:20 53.61673 -6.92429 8146 ft 196 kts 202°
2026-04-24 14:20 53.60411 -6.93491 7761 ft 201 kts 203°
2026-04-24 14:21 53.59169 -6.94546 7494 ft 195 kts 202°
2026-04-24 14:21 53.57991 -6.95539 7292 ft 184 kts 202°
2026-04-24 14:21 53.56856 -6.96419 7126 ft 176 kts 188°
2026-04-24 14:21 53.55695 -6.96108 7018 ft 174 kts 146°
2026-04-24 14:22 53.54853 -6.94619 6868 ft 181 kts 122°
2026-04-24 14:22 53.54217 -6.92789 6686 ft 182 kts 119°
2026-04-24 14:22 53.53179 -6.89656 6408 ft 179 kts 119°
2026-04-24 14:23 53.53099 -6.89415 6391 ft 178 kts 119°
2026-04-24 14:23 53.52496 -6.87600 6231 ft 178 kts 119°
2026-04-24 14:23 53.51891 -6.85787 6063 ft 177 kts 119°
2026-04-24 14:23 53.51304 -6.84040 5903 ft 171 kts 119°
2026-04-24 14:24 53.50707 -6.82263 5566 ft 174 kts 119°
2026-04-24 14:24 53.50111 -6.80490 5332 ft 175 kts 119°
2026-04-24 14:24 53.49519 -6.78733 5144 ft 170 kts 119°
2026-04-24 14:24 53.48951 -6.77052 4996 ft 167 kts 119°
2026-04-24 14:25 53.48367 -6.75332 4874 ft 173 kts 119°
2026-04-24 14:25 53.47766 -6.73546 4699 ft 172 kts 119°
2026-04-24 14:25 53.47177 -6.71812 4555 ft 170 kts 119°
2026-04-24 14:25 53.46602 -6.70112 4401 ft 170 kts 118°
2026-04-24 14:26 53.46039 -6.68376 4249 ft 170 kts 109°
2026-04-24 14:26 53.45903 -6.66418 4103 ft 170 kts 92°
2026-04-24 14:26 53.45818 -6.64431 3947 ft 171 kts 96°
2026-04-24 14:26 53.45701 -6.62447 3806 ft 171 kts 96°
2026-04-24 14:27 53.45584 -6.60474 3667 ft 170 kts 96°
2026-04-24 14:27 53.45467 -6.58499 3494 ft 170 kts 96°
2026-04-24 14:27 53.45351 -6.56540 3403 ft 166 kts 95°
2026-04-24 14:27 53.45235 -6.54584 3284 ft 173 kts 96°
2026-04-24 14:28 53.45120 -6.52588 3077 ft 169 kts 95°
2026-04-24 14:28 53.45005 -6.50640 2834 ft 168 kts 95°
2026-04-24 14:28 53.44895 -6.48733 2620 ft 160 kts 95°
2026-04-24 14:28 53.44791 -6.46912 2432 ft 158 kts 95°
2026-04-24 14:29 53.44685 -6.45047 2193 ft 161 kts 94°
2026-04-24 14:29 53.44578 -6.43195 1984 ft 159 kts 95°
2026-04-24 14:29 53.44471 -6.41339 1775 ft 160 kts 95°
2026-04-24 14:29 53.44365 -6.39490 1566 ft 160 kts 94°
2026-04-24 14:30 53.44295 -6.38262 1435 ft 159 kts 94°
2026-04-24 14:30 53.44156 -6.35835 1119 ft 150 kts 94°
2026-04-24 14:30 53.44080 -6.34154 949 ft 140 kts 90°
2026-04-24 14:30 53.44034 -6.32537 730 ft 138 kts 91°
2026-04-24 14:31 53.43938 -6.30968 616 ft 136 kts 99°
2026-04-24 14:31 53.43817 -6.29362 384 ft 141 kts 90°
2026-04-24 14:31 53.43699 -6.27744 220 ft 139 kts 90°
2026-04-24 14:31 53.43628 -6.26394 215 ft 88 kts 96°
2026-04-24 14:32 53.43540 -6.25772 215 ft 23 kts 153°
2026-04-24 14:32 53.43409 -6.25676 210 ft 18 kts 155°
2026-04-24 14:32 53.43295 -6.25587 220 ft 18 kts 153°
2026-04-24 14:32 53.43184 -6.25504 216 ft 17 kts 156°
2026-04-24 14:33 53.43073 -6.25437 215 ft 17 kts 160°
2026-04-24 14:33 53.42969 -6.25365 217 ft 16 kts 156°
2026-04-24 14:33 53.42870 -6.25287 210 ft 15 kts 154°
2026-04-24 14:33 53.42787 -6.25191 220 ft 15 kts 115°
2026-04-24 14:34 53.42750 -6.25035 210 ft 14 kts 123°
2026-04-24 14:34 53.42674 -6.24919 210 ft 15 kts 145°
2026-04-24 14:34 53.42582 -6.24837 215 ft 15 kts 151°
2026-04-24 14:34 53.42488 -6.24737 215 ft 16 kts 142°
2026-04-24 14:35 53.42408 -6.24614 211 ft 15 kts 135°
2026-04-24 14:35 53.42359 -6.24534 210 ft 2 kts 135°
2026-04-24 14:35 53.42358 -6.24533 210 ft 0 kts 135°